Zurück zum Katalog

STARLINK-11324

AktivKommunikationVLEO
NORAD 61879·PAYLOAD·🇺🇸 United States

Gestartet Nov 9, 2024 von Vandenberg Space Force Base

Loading…

Nächste Überflüge (nächste 24 Stunden)

TLE

AktuellSource: CelesTrak SupGP

Epoche: Sep 15, 2026, 03:40 UTC

1 61879C 24204F   26258.15326389  .00068336  00000+0  56272-3 0  2581
2 61879  53.1562 142.3913 0001026  84.3360 162.7433 15.69683158    10

Verfolge STARLINK-11324 in Echtzeit mit AllMySat

Download on the App Store